Location: Fort Worth, Tx
(32.7431°N, 97.3695°W)
Time: 06:28:52
(UTC-05:00)

S-56A Canister/Altair - Visible Passes

Search period start: 23 February 2024 00:00
Search period end: 04 March 2024 00:00
Orbit: 640 x 2488 km, 38.9° (Epoch: 22 February)

Date Brightness Start Highest point End Pass type
(mag) Time Alt. Az. Time Alt. Az. Time Alt. Az.
27 Feb 11.0 07:29:19 10° S 07:36:49 22° SE 07:42:36 10° E visible
28 Feb 11.1 06:55:51 10° S 07:03:10 19° SE 07:08:59 10° E visible
29 Feb 11.2 06:22:32 10° S 06:29:29 18° SE 06:35:10 10° ESE visible
01 Mar 11.4 05:49:24 10° S 05:55:44 16° SE 06:01:07 10° ESE visible
02 Mar 11.5 05:16:36 10° SSE 05:21:57 14° SE 05:26:41 10° ESE visible
02 Mar 10.1 07:16:05 10° SSW 07:27:13 44° SSE 07:34:54 10° ENE visible
03 Mar 11.5 04:44:28 10° SSE 04:48:07 12° SE 04:51:32 10° ESE visible
03 Mar 10.3 06:42:05 10° SSW 06:53:29 40° SE 07:01:35 10° E visible
